This is the latest recevied weather packets stored in our database for station/object HS5SQI-1. If no packets are shown the sender has not sent any weather packets the latest 10 day(s).
| Time | Temp. | Humidity | Pressure | Rain* | Wind** | Luminosity | Snow |
|---|---|---|---|---|---|---|---|
| 1777712491 | 36.11° C | 46% | 960 hPa | - | - | 0 W/m² | - |
| 1777711869 | 36.11° C | 46% | 960 hPa | - | - | 0 W/m² | - |
| 1777711247 | 36.11° C | 45% | 960 hPa | - | - | 0 W/m² | - |
| 1777710625 | 36.11° C | 46% | 960 hPa | - | - | 0 W/m² | - |
| 1777710003 | 36.11° C | 44% | 961 hPa | - | - | 0 W/m² | - |
| 1777709381 | 36.11° C | 45% | 961 hPa | - | - | 0 W/m² | - |
| 1777708759 | 35.56° C | 45% | 961 hPa | - | - | 0 W/m² | - |
| 1777708136 | 36.11° C | 47% | 961 hPa | - | - | 0 W/m² | - |
| 1777707515 | 35.56° C | 46% | 961 hPa | - | - | 0 W/m² | - |
| 1777706893 | 35.56° C | 47% | 962 hPa | - | - | 0 W/m² | - |
| 1777706271 | 35.56° C | 46% | 962 hPa | - | - | 0 W/m² | - |
| 1777705649 | 35.56° C | 49% | 962 hPa | - | - | 0 W/m² | - |
| 1777705027 | 35.56° C | 51% | 962 hPa | - | - | 0 W/m² | - |
| 1777704405 | 35.56° C | 49% | 962 hPa | - | - | 0 W/m² | - |
| 1777703783 | 35.56° C | 51% | 963 hPa | - | - | 0 W/m² | - |
| 1777703161 | 35° C | 50% | 963 hPa | - | - | 0 W/m² | - |
| 1777702538 | 35.56° C | 57% | 963 hPa | - | - | 0 W/m² | - |
| 1777701916 | 35.56° C | 62% | 963 hPa | - | - | 0 W/m² | - |
| 1777701294 | 35.56° C | 60% | 964 hPa | - | - | 0 W/m² | - |
| 1777700672 | 34.44° C | 62% | 964 hPa | - | - | 0 W/m² | - |
| 1777700050 | 34.44° C | 64% | 964 hPa | - | - | 0 W/m² | - |
| 1777699428 | 34.44° C | 64% | 964 hPa | - | - | 0 W/m² | - |
| 1777698806 | 34.44° C | 65% | 965 hPa | - | - | 0 W/m² | - |
| 1777698184 | 34.44° C | 70% | 965 hPa | - | - | 0 W/m² | - |
| 1777697562 | 33.89° C | 72% | 965 hPa | - | - | 0 W/m² | - |
* Rain since midnight (hover to see other rain measurements)
** Current wind speed in m/s (hover to see current wind gust speed)